Weather History for Oxford, CT

Change the Weather History Date:

Monday, December 17, 2012

  Actual Average Record
Temperature  
Mean Temperature 1 °C -  
Max Temperature 3 °C 2 °C 15 °C (2000)
Min Temperature 1 °C -4 °C -14 °C (2013)
Degree Days  
Heating Degree Days 31    
Moisture  
Dew Point -1 °C    
Average Humidity 83    
Maximum Humidity 87    
Minimum Humidity 81    
Precipitation  
Precipitation 1.27 mm - - ()
Sea Level Pressure  
Sea Level Pressure 1010 hPa    
Wind  
Wind Speed 18 km/h (ENE)    
Max Wind Speed 23 km/h    
Max Gust Speed 39 km/h    
Visibility 4 kilometers    
Events Rain    
Averages and records for this station are not official NWS values.
T = Trace of Precipitation, MM = Missing Value Source: NWS Daily Summary

Daily Weather History Graph

Daily Weather History Graph

Search for Another Location

Airport:

Trip Planner

Search our weather history database for the weather conditions in past years. The results will help you decide how hot, cold, wet, or windy it might be!

Date:

Astronomy

Dec. 17, 2012 Rise Set
Actual Time 7:13 AM EST 4:24 PM EST
Civil Twilight 6:42 AM EST 4:55 PM EST
Nautical Twilight 6:07 AM EST 5:30 PM EST
Astronomical Twilight 5:33 AM EST 6:04 PM EST
Moon 10:17 AM EST (12/17) 9:46 PM EST (12/17)
Length of Visible Light 10h 13m
Length of Day
9h 10m
Waxing Crescent, 24% of the Moon is Illuminated
Dec 17
Waxing Crescent
Dec 20
First Quarter
Dec 28
Full
Jan 4
Last Quarter
Jan 11
New

Hourly Weather History & Observations

Time (EST) Temp. Windchill Dew Point Humidity Pressure Visibility Wind Dir Wind Speed Gust Speed Precip Events Conditions
12:15 AM 1.0 °C -3.7 °C -2.0 °C 81% 1014.1 hPa 4.8 km ENE 18.5 km/h / 5.1 m/s 29.6 km/h / 8.2 m/s N/A   Overcast
12:35 AM 1.0 °C -4.3 °C -2.0 °C 81% 1014.1 hPa 4.0 km ENE 22.2 km/h / 6.2 m/s 31.5 km/h / 8.7 m/s 0.3 mm   Overcast
5:45 AM 1.0 °C -3.7 °C -2.0 °C 81% 1012.4 hPa 16.1 km ENE 18.5 km/h / 5.1 m/s 27.8 km/h / 7.7 m/s N/A   Overcast
6:45 AM 1.0 °C -3.7 °C -2.0 °C 81% 1012.8 hPa 11.3 km East 18.5 km/h / 5.1 m/s 29.6 km/h / 8.2 m/s N/A Rain Light Rain
7:45 AM 1.0 °C -2.4 °C -2.0 °C 81% 1013.1 hPa 11.3 km ENE 11.1 km/h / 3.1 m/s 27.8 km/h / 7.7 m/s N/A   Overcast
8:05 AM 1.0 °C -3.7 °C -2.0 °C 81% 1012.8 hPa 3.2 km East 18.5 km/h / 5.1 m/s 29.6 km/h / 8.2 m/s N/A   Overcast
8:50 AM 1.0 °C -3.7 °C -2.0 °C 81% 1012.8 hPa 2.4 km East 18.5 km/h / 5.1 m/s 29.6 km/h / 8.2 m/s N/A   Overcast
9:45 AM 1.0 °C -3.7 °C -2.0 °C 81% 1012.8 hPa 2.4 km East 18.5 km/h / 5.1 m/s 29.6 km/h / 8.2 m/s N/A   Overcast
10:45 AM 2.0 °C -2.5 °C -1.0 °C 81% 1013.1 hPa 1.6 km ENE 18.5 km/h / 5.1 m/s 25.9 km/h / 7.2 m/s N/A   Overcast
11:45 AM 2.0 °C -1.9 °C -1.0 °C 81% 1012.1 hPa 1.6 km ENE 14.8 km/h / 4.1 m/s - N/A   Light Drizzle
12:45 PM 2.0 °C -1.9 °C -1.0 °C 81% 1012.1 hPa 1.6 km East 14.8 km/h / 4.1 m/s - N/A   Overcast
1:45 PM 2.0 °C -1.9 °C -1.0 °C 81% 1011.4 hPa 1.6 km ENE 14.8 km/h / 4.1 m/s - N/A   Overcast
2:45 PM 2.0 °C -0.2 °C -1.0 °C 81% 1011.4 hPa 1.6 km NE 7.4 km/h / 2.1 m/s - N/A   Overcast
3:45 PM 2.0 °C -2.7 °C -1.0 °C 81% 1010.0 hPa 1.6 km NE 20.4 km/h / 5.7 m/s 29.6 km/h / 8.2 m/s N/A   Light Drizzle
4:45 PM 2.0 °C -2.2 °C -1.0 °C 81% 1009.4 hPa 3.2 km East 16.7 km/h / 4.6 m/s 29.6 km/h / 8.2 m/s N/A   Light Drizzle
7:45 PM 2.0 °C -2.2 °C -1.0 °C 81% 1009.4 hPa 3.2 km ENE 16.7 km/h / 4.6 m/s 25.9 km/h / 7.2 m/s N/A   Light Drizzle
8:55 PM 2.0 °C -1.5 °C -1.0 °C 81% 1008.7 hPa 2.4 km ENE 13.0 km/h / 3.6 m/s 25.9 km/h / 7.2 m/s N/A   Overcast
9:15 PM 2.0 °C -2.5 °C -1.0 °C 81% 1008.4 hPa 2.4 km ENE 18.5 km/h / 5.1 m/s 27.8 km/h / 7.7 m/s 0.3 mm   Overcast
9:35 PM 2.0 °C -2.2 °C 0.0 °C 87% 1008.0 hPa 2.0 km ENE 16.7 km/h / 4.6 m/s 27.8 km/h / 7.7 m/s 0.3 mm   Overcast
9:55 PM 2.0 °C -2.2 °C 0.0 °C 87% 1008.0 hPa 2.4 km ENE 16.7 km/h / 4.6 m/s 33.3 km/h / 9.3 m/s 0.3 mm   Overcast
10:15 PM 2.0 °C -2.5 °C 0.0 °C 87% 1007.7 hPa 2.8 km ENE 18.5 km/h / 5.1 m/s 29.6 km/h / 8.2 m/s N/A   Overcast
10:35 PM 2.0 °C -2.2 °C 0.0 °C 87% 1006.7 hPa 2.8 km ENE 16.7 km/h / 4.6 m/s 29.6 km/h / 8.2 m/s 0.3 mm   Overcast
10:55 PM 2.0 °C -2.2 °C 0.0 °C 87% 1006.3 hPa 2.8 km ENE 16.7 km/h / 4.6 m/s 25.9 km/h / 7.2 m/s 0.3 mm   Overcast
11:15 PM 2.0 °C -2.2 °C 0.0 °C 87% 1006.0 hPa 2.8 km ENE 16.7 km/h / 4.6 m/s 38.9 km/h / 10.8 m/s 0.3 mm   Overcast
11:35 PM 2.0 °C -1.9 °C 0.0 °C 87% 1006.0 hPa 2.8 km ENE 14.8 km/h / 4.1 m/s 29.6 km/h / 8.2 m/s 0.8 mm   Overcast
11:56 PM 3.0 °C -1.5 °C 0.0 °C 81% 1005.3 hPa 4.8 km ENE 20.4 km/h / 5.7 m/s 29.6 km/h / 8.2 m/s N/A   Overcast